Location: Unspecified
(0.0000°N, 0.0000°E)
Time: 00:57:07
(UTC+00:00)

deb Explorer IX - All Passes

Search period start: 26 May 2019 00:00
Search period end: 05 June 2019 00:00
Orbit: 538 x 1114 km, 38.8° (Epoch: 25 May)

Date Brightness Start Highest point End Pass type
(mag) Time Alt. Az. Time Alt. Az. Time Alt. Az.
26 May - 08:31:21 10° NW 08:36:43 60° NE 08:43:06 10° ESE daylight
26 May - 10:19:14 10° W 10:24:11 25° SW 10:29:41 10° SSE daylight
26 May - 19:29:49 10° SSW 19:34:48 25° SE 19:39:11 10° E visible
26 May - 21:16:34 10° WSW 21:22:00 47° NW 21:26:37 10° NNE visible
27 May - 08:09:45 10° NW 08:14:59 61° NE 08:21:12 10° ESE daylight
27 May - 09:57:43 10° W 10:02:25 24° SW 10:07:39 10° SSE daylight
27 May - 19:07:48 10° SSW 19:13:05 27° SE 19:17:43 10° E visible
27 May - 20:54:42 10° WSW 21:00:18 46° NW 21:05:03 10° NNE visible
28 May - 07:48:10 10° NW 07:53:14 63° NE 07:59:18 10° ESE daylight
28 May - 09:36:14 10° W 09:40:40 22° SW 09:45:37 10° SSE daylight
28 May - 18:45:48 10° SSW 18:51:21 29° SE 18:56:13 10° E visible
28 May - 20:32:51 10° WSW 20:38:35 46° NW 20:43:28 10° NNE visible
29 May - 07:26:36 10° NW 07:31:32 65° NE 07:37:24 10° ESE daylight
29 May - 09:14:47 10° W 09:18:56 21° SW 09:23:33 10° S daylight
29 May - 18:23:47 10° SSW 18:29:35 30° SE 18:34:42 10° E visible
29 May - 20:10:57 10° WSW 20:16:51 45° NW 20:21:52 10° NNE visible
30 May - 07:05:02 10° NW 07:09:49 67° NE 07:15:32 10° SE daylight
30 May - 08:53:20 10° W 08:57:13 19° SW 09:01:30 10° S daylight
30 May - 18:01:47 10° SSW 18:07:49 32° SE 18:13:08 10° E daylight
30 May - 19:49:04 10° WSW 19:55:07 44° NW 20:00:16 10° NNE visible
31 May - 06:43:28 10° NW 06:48:08 69° NE 06:53:40 10° SE daylight
31 May - 08:31:56 10° WSW 08:35:30 18° SW 08:39:25 10° S daylight
31 May - 17:39:47 10° SSW 17:46:02 34° SE 17:51:34 10° ENE daylight
31 May - 19:27:10 10° WSW 19:33:21 43° NW 19:38:39 10° NNE visible
01 Jun - 06:21:55 10° NW 06:26:27 72° NE 06:31:49 10° SE daylight
01 Jun - 08:10:35 10° WSW 08:13:48 16° SW 08:17:20 10° S daylight
01 Jun - 17:17:48 10° SSW 17:24:14 36° SE 17:29:59 10° ENE daylight
01 Jun - 19:05:15 10° WSW 19:11:34 43° NW 19:17:01 10° NNE visible
02 Jun - 06:00:22 10° NW 06:04:47 75° NE 06:09:58 10° SE daylight
02 Jun - 07:49:14 10° WSW 07:52:07 15° SW 07:55:13 10° S daylight
02 Jun - 16:55:49 10° SSW 17:02:24 38° SE 17:08:21 10° ENE daylight
02 Jun - 18:43:21 10° WSW 18:49:46 42° NW 18:55:22 10° NNE visible
03 Jun - 05:38:48 10° NW 05:43:08 78° NE 05:48:09 10° SE daylight
03 Jun - 07:27:58 10° WSW 07:30:26 14° SW 07:33:04 10° S daylight
03 Jun - 16:33:51 10° SSW 16:40:35 39° SE 16:46:42 10° ENE daylight
03 Jun - 18:21:27 10° WSW 18:27:58 42° NW 18:33:42 10° NNE visible
04 Jun - 05:17:15 10° NW 05:21:29 82° NE 05:26:21 10° SE visible
04 Jun - 07:06:46 10° WSW 07:08:46 12° SW 07:10:53 10° S daylight
04 Jun - 16:11:54 10° SSW 16:18:44 41° SE 16:25:03 10° ENE daylight
04 Jun - 17:59:32 10° WSW 18:06:08 41° NW 18:12:01 10° NNE daylight
